Theta_e
298 299 294 292 292 292 290 290 290 293 293 291 294 293 296 298 297 298 299 299 300 302 304 302 300 298 297 295 295 294 295 297 301 304 303 304 300 297 295 295 295 297 298 300
298 295 293 292 292 290 291 291 292 294 292 291 293 292 296 296 296 297 299 299 300 301 301 300 298 297 297 295 293 293 293 294 297 300 302 303 301 297 294 293 292 293 295 297
295 294 293 292 292 291 294 291 291 288 291 292 290 293 293 294 295 296 297 299 300 301 301 299 297 297 297 295 294 291 292 292 293 295 301 302 300 297 295 292 290 290 292 294
295 293 292 291 291 291 291 291 289 289 289 289 291 288 294 293 294 295 297 298 299 300 300 301 299 297 296 295 293 291 290 290 290 292 295 295 296 294 291 290 290 290 290 291
295 292 292 291 292 291 292 290 289 289 288 287 289 288 295 291 293 295 298 298 299 300 300 300 299 298 297 295 293 292 289 289 289 290 290 292 290 290 290 290 288 289 290 290
294 295 293 293 291 291 292 290 290 290 289 286 287 287 292 293 293 295 298 299 299 299 299 299 299 298 295 294 292 291 290 288 288 289 288 289 289 288 289 288 289 288 289 289
294 293 293 292 291 292 293 292 289 287 287 286 286 285 291 295 295 295 296 297 297 298 299 298 296 295 294 293 292 290 289 288 287 288 287 287 287 287 286 287 288 287 288 288
291 291 292 292 292 291 290 290 288 280 283 286 285 284 292 293 294 294 294 295 295 296 297 297 297 296 295 293 291 290 289 287 287 287 286 287 286 287 287 286 287 287 287 287
291 291 292 290 291 292 289 289 289 287 285 282 288 289 294 293 293 294 294 294 295 295 295 296 296 296 295 294 291 290 289 287 286 286 286 285 285 285 285 285 287 287 287 286
294 290 292 289 291 290 290 291 286 287 281 282 288 290 289 293 293 294 294 294 295 294 293 293 293 292 293 293 292 290 289 287 286 285 285 285 285 285 285 287 286 285 285 285
294 292 291 291 289 290 287 287 286 287 286 282 283 288 295 294 295 295 296 296 295 295 294 292 290 289 288 290 290 288 286 286 285 284 284 284 284 285 286 286 285 284 284 284
294 292 289 292 290 290 290 290 289 286 286 284 284 286 298 295 295 294 295 295 295 295 291 289 288 287 287 287 286 286 286 285 285 284 283 284 285 285 285 285 284 285 284 284
292 290 288 291 288 288 288 289 289 288 287 284 282 287 294 294 294 295 294 294 293 291 288 288 287 287 286 285 285 285 285 284 284 283 283 284 283 284 284 284 284 284 283 284
295 291 290 287 291 294 286 286 287 288 283 285 287 289 295 297 296 299 294 293 293 290 288 288 286 285 284 284 285 284 284 283 283 283 283 283 283 284 285 284 283 282 283 282
293 287 290 291 293 293 292 291 292 287 287 284 289 290 293 297 297 297 297 294 292 287 286 284 284 282 281 282 283 282 282 282 283 283 283 283 284 284 283 283 282 282 282 282
291 285 287 286 291 291 289 290 291 291 291 290 291 290 297 298 294 293 293 291 288 286 284 283 282 281 280 280 281 281 282 282 283 283 283 283 283 282 282 281 281 281 281 281
286 286 284 283 290 288 286 291 291 290 291 291 287 292 292 291 291 289 287 287 285 284 282 281 281 280 280 281 281 281 282 282 282 282 282 282 282 281 281 280 280 280 279 279
286 286 285 284 287 280 291 293 293 292 289 288 288 288 288 287 285 285 284 285 282 282 281 281 281 280 280 280 281 282 282 282 282 282 281 281 281 280 280 279 279 279 279 278
295 290 284 282 283 287 291 286 286 288 284 285 284 286 287 288 288 280 281 281 280 280 280 280 280 279 279 279 280 280 280 281 280 280 280 280 279 279 279 278 278 278 278 278
289 291 286 285 281 280 283 286 291 290 283 281 281 280 280 284 283 280 281 280 280 280 280 279 279 278 278 278 279 279 279 279 279 279 279 279 279 278 278 278 277 277 277 276
285 286 283 284 283 286 277 280 285 282 277 278 278 277 278 278 279 281 281 280 279 279 278 278 277 277 276 277 277 277 277 277 278 278 278 278 278 277 277 276 276 276 276 276
288 286 285 284 282 281 277 280 279 275 278 276 276 276 276 277 278 278 279 278 277 277 277 277 276 276 276 277 276 276 276 277 278 278 277 276 275 275 275 274 275 275 275 274
287 287 286 280 276 276 276 275 277 276 275 275 275 275 275 276 275 276 276 276 275 275 276 276 275 275 276 277 276 275 276 276 275 275 274 274 273 273 274 273 273 274 274 273
282 278 280 277 273 273 274 275 276 276 274 274 275 275 274 273 274 274 274 274 275 275 275 276 275 274 275 276 275 275 275 275 273 272 272 273 272 272 273 273 273 273 273 273
271 275 273 274 272 274 274 273 274 274 274 274 274 274 273 272 272 272 272 273 273 274 275 274 274 273 274 274 274 274 273 273 271 271 272 272 272 272 272 272 272 272 273 273
270 267 269 269 270 270 273 274 274 273 272 273 273 272 273 272 271 272 271 272 272 273 273 272 272 272 271 272 272 272 273 272 271 270 271 271 271 272 272 271 272 274 275 277
Wind_Speed
4 2 4 3 3 1 2 6 9 10 3 9 11 21 18 12 14 15 14 13 13 13 8 8 8 6 4 3 3 1 4 5 4 2 2 2 4 5 5 6 9 10 10 10
3 2 1 1 2 2 4 8 6 7 2 9 14 23 18 8 11 14 13 12 13 11 11 10 10 8 6 6 4 2 3 5 4 3 2 1 1 3 4 5 7 10 9 10
1 4 2 2 2 5 5 5 6 7 13 5 13 8 2 2 3 5 7 7 9 12 11 11 11 11 9 7 5 2 1 2 4 3 1 2 2 2 2 5 5 8 10 10
1 3 2 2 3 2 5 1 4 11 10 6 4 6 1 1 6 8 9 9 9 10 9 10 11 11 10 8 6 4 1 2 4 4 2 3 2 2 3 4 4 5 8 9
2 4 3 4 1 2 4 3 8 4 5 6 4 5 0 1 6 12 12 10 9 10 11 12 12 10 9 8 6 5 3 1 2 3 3 2 4 4 3 3 4 5 6 8
1 0 3 1 1 4 7 4 3 2 3 4 3 3 10 2 2 3 7 9 9 10 10 9 9 9 9 8 8 7 6 5 4 3 3 4 5 4 2 3 3 3 3 4
2 3 2 2 3 3 4 6 4 3 3 4 3 3 13 7 5 4 5 6 6 8 10 10 11 11 10 11 10 8 8 6 6 5 4 3 4 4 5 2 3 4 4 4
2 3 6 4 2 2 2 3 3 7 6 11 4 8 4 2 4 2 0 3 3 6 8 10 11 10 11 12 11 10 9 7 7 6 6 5 4 3 3 3 2 3 3 3
3 4 3 1 1 2 4 4 3 6 2 6 3 5 13 2 9 6 8 7 7 6 6 7 7 8 10 10 11 11 10 8 8 6 6 5 4 4 4 4 1 2 3 3
1 6 2 3 2 3 4 5 2 2 6 11 11 19 10 6 4 7 11 12 9 6 5 5 3 3 5 7 8 10 10 10 9 8 6 5 5 4 3 1 2 3 3 4
4 4 3 1 9 8 6 4 3 4 4 5 10 7 2 7 5 8 7 10 10 8 5 2 2 3 2 3 7 9 9 9 9 7 6 6 5 5 3 1 0 2 2 4
4 3 7 8 3 1 2 5 9 6 5 6 7 14 8 5 5 5 6 7 8 7 5 3 1 3 3 2 5 7 8 8 8 8 7 6 6 5 4 2 1 2 4 5
6 4 6 5 4 1 5 5 8 6 2 11 7 11 4 3 6 7 9 10 10 9 8 6 3 3 5 2 4 6 7 7 8 8 8 7 6 5 3 2 2 3 5 5
5 4 13 12 15 7 7 10 12 10 5 12 17 27 25 23 15 16 11 12 14 12 8 5 3 5 5 3 1 5 6 7 8 8 8 6 6 4 2 2 3 4 5 5
2 7 11 20 22 21 25 22 22 17 25 13 27 24 22 23 22 16 13 11 10 7 4 4 6 8 7 5 0 4 6 7 8 7 6 6 5 3 2 4 5 5 6 6
6 5 4 10 20 21 26 21 23 24 23 23 28 29 22 20 10 9 9 4 7 5 6 7 7 7 7 5 1 3 4 5 5 5 5 4 4 3 4 4 5 6 6 6
8 5 5 9 5 9 17 17 18 6 6 8 9 13 17 17 13 8 5 3 5 6 6 5 5 5 6 6 5 1 3 4 4 4 4 4 4 5 5 5 6 6 6 6
9 5 3 5 5 9 2 2 3 9 8 11 11 14 12 10 6 11 13 7 6 5 4 4 5 5 5 5 4 2 2 2 3 4 4 5 5 5 5 6 6 6 6 6
17 8 4 4 7 8 14 6 5 5 6 10 9 11 9 8 4 7 11 11 9 7 6 5 5 4 4 4 4 3 3 3 4 5 5 5 5 5 6 7 7 6 6 6
3 11 6 4 6 5 4 8 13 7 4 15 15 14 16 11 5 5 9 8 7 7 6 5 4 4 4 4 5 4 4 5 5 4 4 5 5 7 7 7 7 7 7 7
3 3 9 9 6 4 7 14 10 6 6 12 12 12 12 8 7 9 7 6 5 4 5 4 3 3 4 4 4 4 4 5 5 5 6 6 6 7 7 8 8 8 8 8
6 5 5 4 6 8 20 2 5 7 6 9 9 10 9 9 8 9 8 8 7 6 5 5 4 4 4 4 5 5 6 5 6 7 7 7 7 6 6 8 8 8 8 8
5 5 2 4 5 8 11 12 8 8 6 9 9 9 10 9 9 9 8 7 6 5 5 5 5 6 5 5 5 8 8 7 8 8 9 8 8 8 8 8 9 7 8 7
5 11 4 5 6 8 9 7 10 8 6 7 8 8 8 9 9 9 8 8 8 8 8 7 8 9 9 7 7 8 8 9 9 10 10 9 9 9 9 7 7 7 7 7
4 8 8 6 7 4 10 10 8 7 8 8 8 8 9 10 10 10 10 10 10 10 9 9 10 10 11 10 10 10 10 10 10 10 10 9 8 9 9 8 8 7 8 8
7 5 4 3 5 6 4 8 11 10 11 10 10 11 11 10 11 11 10 10 10 11 11 11 12 12 12 12 12 11 11 10 10 10 9 8 7 8 7 8 8 13 17 18
Wind_Direction
33 55 37 39 44 49 287 288 288 287 312 294 272 285 283 262 230 237 232 228 219 216 196 177 174 173 170 160 215 309 347 6 1 73 96 65 45 40 42 27 24 24 23 20
201 79 96 141 167 253 259 294 315 290 274 306 306 293 303 280 240 238 236 226 217 201 185 177 179 179 189 194 197 262 354 11 17 1 53 46 101 62 46 32 30 21 22 21
341 87 132 232 245 293 289 278 334 305 316 245 296 261 306 111 233 215 223 227 216 203 191 183 187 193 189 196 190 197 346 11 23 5 203 174 153 133 47 33 30 24 20 21
287 133 205 219 268 270 300 192 292 305 319 311 352 303 230 224 250 230 214 209 204 191 191 185 189 195 196 190 181 175 136 8 20 6 45 60 63 74 48 33 28 38 34 31
99 189 200 234 247 197 317 303 303 295 281 302 172 260 298 282 249 235 220 205 197 187 186 189 193 192 192 179 183 163 158 160 71 52 41 54 87 88 97 62 44 39 39 34
299 62 235 319 181 223 308 272 250 210 245 247 94 298 290 243 260 295 230 204 192 184 188 188 178 176 184 179 183 178 182 171 162 145 131 118 114 109 100 60 50 43 38 33
198 197 176 225 252 197 293 299 298 268 232 307 128 242 267 272 254 270 269 186 183 190 189 183 184 188 190 191 191 192 187 193 177 162 124 106 117 107 109 85 44 25 19 23
289 258 187 161 285 325 25 322 290 295 302 308 151 235 261 328 320 251 154 170 178 184 190 196 201 197 200 200 195 196 195 188 191 170 150 154 159 136 111 79 78 60 36 15
224 245 123 115 133 267 137 220 27 282 221 277 216 244 277 284 255 221 221 214 206 181 185 199 205 215 213 204 200 200 191 189 189 181 169 165 164 155 137 124 92 47 23 347
175 277 156 115 148 84 266 128 198 201 279 293 284 295 262 263 256 216 224 221 199 178 174 168 168 216 229 218 204 195 195 193 185 179 179 172 156 150 138 119 29 1 18 354
176 242 134 193 203 187 160 193 196 292 239 272 295 299 140 309 312 302 275 222 199 190 183 152 88 61 3 203 195 193 188 189 184 182 178 166 159 159 163 143 2 336 333 337
185 242 251 249 98 23 278 222 196 223 220 244 291 271 287 280 276 272 277 215 197 183 159 151 127 85 85 163 188 190 194 192 185 179 174 168 169 175 179 208 264 293 308 301
178 209 291 221 147 58 243 208 217 273 29 233 256 263 158 204 272 255 243 213 194 186 180 177 171 95 67 254 189 189 190 186 173 166 169 177 183 188 201 240 256 287 294 290
175 232 243 258 274 258 232 225 224 206 221 257 239 274 286 287 280 286 243 220 202 191 182 158 100 44 29 348 216 187 180 174 167 171 179 179 190 198 230 256 276 276 284 276
157 253 252 255 268 275 271 274 264 225 240 247 273 279 281 288 304 305 304 236 197 178 143 63 40 21 16 14 61 182 173 169 174 178 186 186 178 203 247 262 264 267 266 271
175 239 220 261 263 260 272 264 259 254 258 257 261 272 277 298 346 334 324 232 188 143 88 49 34 13 2 357 344 172 164 169 172 188 196 180 199 220 241 251 260 264 262 263
174 209 201 256 279 302 278 261 238 216 226 238 267 306 348 332 331 3 18 71 97 77 63 55 41 24 15 9 358 314 180 163 166 178 206 224 224 238 244 251 254 257 263 266
182 191 207 272 288 252 292 10 261 238 47 18 347 348 344 341 21 36 20 29 63 66 62 53 35 26 21 8 6 357 273 186 201 229 227 245 245 252 257 261 264 264 262 266
221 201 236 240 220 306 296 32 7 12 84 19 342 356 351 341 289 65 32 27 17 21 36 39 32 20 17 14 345 304 284 281 261 252 246 243 252 261 265 268 271 272 272 270
192 233 211 186 238 249 57 10 351 326 189 15 8 2 356 354 311 36 16 15 18 13 7 15 22 357 331 347 325 299 303 297 282 270 265 260 267 269 271 274 275 280 273 274
165 181 224 238 262 224 356 316 310 245 8 11 13 5 357 20 8 346 7 29 25 14 354 351 12 347 324 328 326 315 313 288 292 276 271 270 270 272 275 278 277 273 267 270
236 196 221 212 234 246 352 66 6 351 6 6 3 4 357 4 357 355 13 12 4 355 351 328 323 309 297 306 316 308 293 290 276 272 274 276 276 277 280 279 275 266 265 263
244 319 339 31 50 58 39 57 44 5 3 4 358 359 1 355 357 356 357 357 350 335 323 314 318 313 312 304 299 292 292 292 289 284 278 279 280 276 274 272 269 265 256 257
66 13 52 168 49 87 60 45 27 15 9 7 2 355 357 343 347 348 346 345 340 335 325 327 320 315 307 305 297 289 288 287 285 281 280 280 276 273 266 262 262 260 258 255
352 339 352 85 37 158 65 47 7 356 1 2 359 349 350 347 345 344 337 337 332 325 328 324 316 308 303 306 298 295 290 287 281 280 278 274 270 270 271 261 258 253 257 255
0 7 14 25 20 292 325 18 9 359 355 349 349 346 347 339 332 333 328 327 325 320 322 315 312 308 306 305 300 299 293 286 282 281 276 269 269 268 267 263 265 257 260 261